date,City,No. Stations,Air Quality,Index Value,Prominent Pollutant
2019-01-09,Sonipat,1.0,Moderate,134,PM2.5
2019-01-10,Sonipat,1.0,Poor,230,PM2.5
2019-01-11,Sonipat,1.0,Very Poor,301,PM2.5
2019-01-12,Sonipat,1.0,Very Poor,392,PM2.5
2019-01-13,Sonipat,1.0,Very Poor,368,PM2.5
2019-01-14,Sonipat,1.0,Poor,203,PM2.5
2019-01-15,Sonipat,1.0,Moderate,160,PM2.5
2019-01-16,Sonipat,1.0,Poor,295,PM2.5
2019-01-17,Sonipat,1.0,Very Poor,344,PM2.5
2019-01-18,Sonipat,1.0,Very Poor,343,PM2.5
2019-01-19,Sonipat,1.0,Poor,274,PM2.5
2019-01-22,Sonipat,1.0,Satisfactory,91,PM2.5
2019-01-23,Sonipat,1.0,Moderate,102,PM2.5
2019-01-24,Sonipat,1.0,Poor,231,PM2.5
2019-01-25,Sonipat,1.0,Moderate,124,PM2.5
2019-01-26,Sonipat,1.0,Moderate,162,PM2.5
2019-01-27,Sonipat,1.0,Moderate,164,PM2.5
2019-01-28,Sonipat,1.0,Moderate,135,PM2.5
2019-01-29,Sonipat,1.0,Moderate,129,PM2.5
2019-01-30,Sonipat,1.0,Moderate,167,PM2.5
2019-01-31,Sonipat,1.0,Poor,292,PM2.5
2019-02-01,Sonipat,1.0,Poor,298,PM2.5
2019-02-02,Sonipat,1.0,Poor,223,PM2.5
2019-02-03,Sonipat,1.0,Moderate,196,PM2.5
2019-02-04,Sonipat,1.0,Moderate,189,PM2.5
2019-02-05,Sonipat,1.0,Poor,263,PM2.5
2019-02-06,Sonipat,1.0,Very Poor,391,PM2.5
2019-02-07,Sonipat,1.0,Poor,262,PM2.5
2019-02-08,Sonipat,1.0,Moderate,101,PM10
2019-02-09,Sonipat,1.0,Satisfactory,98,PM2.5
2019-02-10,Sonipat,1.0,Moderate,155,PM2.5
2019-02-11,Sonipat,1.0,Poor,242,PM2.5
2019-02-12,Sonipat,1.0,Poor,257,PM2.5
2019-02-13,Sonipat,1.0,Poor,279,PM2.5
2019-02-14,Sonipat,1.0,Very Poor,327,PM2.5
2019-02-16,Sonipat,1.0,Moderate,172,PM2.5
2019-02-17,Sonipat,1.0,Satisfactory,97,PM2.5
2019-02-18,Sonipat,1.0,Moderate,117,PM2.5
2019-02-19,Sonipat,1.0,Moderate,154,PM2.5
2019-02-20,Sonipat,1.0,Poor,238,PM2.5
2019-02-21,Sonipat,1.0,Moderate,106,CO
2019-02-22,Sonipat,1.0,Moderate,185,PM10
2019-02-23,Sonipat,1.0,Moderate,103,CO
2019-02-24,Sonipat,1.0,Moderate,103,CO
2019-02-25,Sonipat,1.0,Moderate,149,PM2.5
2019-02-26,Sonipat,1.0,Moderate,104,CO
2019-02-27,Sonipat,1.0,Moderate,102,CO
2019-02-28,Sonipat,1.0,Moderate,101,CO
2019-03-01,Sonipat,1.0,Satisfactory,100,CO
2019-03-02,Sonipat,1.0,Moderate,132,PM2.5
2019-03-03,Sonipat,1.0,Moderate,136,PM2.5
2019-03-04,Sonipat,1.0,Moderate,122,CO
2019-03-05,Sonipat,1.0,Moderate,120,CO
2019-03-06,Sonipat,1.0,Moderate,141,CO
2019-03-09,Sonipat,1.0,Moderate,133,PM10
2019-03-10,Sonipat,1.0,Satisfactory,80,PM10
2019-03-11,Sonipat,1.0,Moderate,119,PM10
2019-03-12,Sonipat,1.0,Moderate,109,PM10
2019-03-13,Sonipat,1.0,Moderate,127,PM10
2019-03-14,Sonipat,1.0,Moderate,171,PM2.5
2019-03-15,Sonipat,1.0,Moderate,105,PM10
2019-03-16,Sonipat,1.0,Satisfactory,76,PM10
2019-03-17,Sonipat,1.0,Satisfactory,87,PM10
2019-03-18,Sonipat,1.0,Moderate,104,PM2.5
2019-03-19,Sonipat,1.0,Moderate,119,PM2.5
2019-03-20,Sonipat,1.0,Poor,244,OZONE
2019-03-21,Sonipat,1.0,Moderate,172,PM2.5
2019-03-22,Sonipat,1.0,Satisfactory,85,PM10
2019-03-23,Sonipat,1.0,Satisfactory,79,PM10
2019-03-24,Sonipat,1.0,Satisfactory,74,PM10
2019-03-25,Sonipat,1.0,Satisfactory,87,PM10
2019-03-26,Sonipat,1.0,Moderate,109,PM2.5
2019-03-27,Sonipat,1.0,Satisfactory,91,PM10
2019-03-28,Sonipat,1.0,Moderate,133,PM2.5
2019-03-29,Sonipat,1.0,Moderate,161,PM2.5
2019-03-30,Sonipat,1.0,Moderate,182,PM2.5
2019-03-31,Sonipat,1.0,Moderate,141,PM2.5
2019-04-01,Sonipat,1.0,Moderate,105,PM10
2019-04-02,Sonipat,1.0,Moderate,130,PM10
2019-04-03,Sonipat,1.0,Moderate,109,OZONE
2019-04-04,Sonipat,1.0,Poor,250,OZONE
2019-04-05,Sonipat,1.0,Poor,205,PM2.5
2019-04-06,Sonipat,1.0,Moderate,190,PM2.5
2019-04-08,Sonipat,1.0,Poor,296,PM2.5
2019-04-09,Sonipat,1.0,Poor,206,PM2.5
2019-04-10,Sonipat,1.0,Moderate,198,PM2.5
2019-04-11,Sonipat,1.0,Moderate,127,PM10
2019-04-12,Sonipat,1.0,Moderate,142,PM10
2019-04-13,Sonipat,1.0,Moderate,126,PM10
2019-04-14,Sonipat,1.0,Moderate,128,PM10
2019-04-15,Sonipat,1.0,Moderate,137,PM10
2019-04-16,Sonipat,1.0,Moderate,123,PM10
2019-04-17,Sonipat,1.0,Satisfactory,81,PM10
2019-04-18,Sonipat,1.0,Satisfactory,77,OZONE
2019-04-19,Sonipat,1.0,Satisfactory,86,PM10
2019-04-20,Sonipat,1.0,Satisfactory,98,PM10
2019-04-21,Sonipat,1.0,Moderate,131,PM2.5
2019-04-22,Sonipat,1.0,Moderate,176,PM2.5
2019-04-23,Sonipat,1.0,Moderate,161,PM10
2019-04-24,Sonipat,1.0,Poor,226,PM2.5
2019-04-25,Sonipat,1.0,Poor,279,PM10
2019-04-26,Sonipat,1.0,Moderate,189,PM10
2019-04-27,Sonipat,1.0,Poor,260,PM10
2019-04-28,Sonipat,1.0,Poor,265,PM10
2019-04-29,Sonipat,1.0,Poor,215,PM10
2019-04-30,Sonipat,1.0,Poor,277,PM2.5
2019-05-01,Sonipat,1.0,Poor,262,PM2.5
2019-05-02,Sonipat,1.0,Poor,247,PM2.5
2019-05-03,Sonipat,1.0,Moderate,152,OZONE
2019-05-04,Sonipat,1.0,Moderate,120,PM10
2019-05-05,Sonipat,1.0,Moderate,180,PM2.5
2019-05-06,Sonipat,1.0,Poor,237,PM2.5
2019-05-07,Sonipat,1.0,Very Poor,331,PM2.5
2019-05-08,Sonipat,1.0,Very Poor,313,PM2.5
2019-05-09,Sonipat,1.0,Very Poor,309,PM2.5
2019-05-10,Sonipat,1.0,Very Poor,348,PM10
2019-05-11,Sonipat,1.0,Moderate,163,OZONE
2019-05-12,Sonipat,1.0,Poor,267,PM2.5
2019-05-13,Sonipat,1.0,Poor,280,OZONE
2019-05-14,Sonipat,1.0,Moderate,130,PM10
2019-05-15,Sonipat,1.0,Moderate,186,PM2.5
2019-05-16,Sonipat,1.0,Moderate,140,PM2.5
2019-05-17,Sonipat,1.0,Poor,269,PM2.5
2019-05-18,Sonipat,1.0,Satisfactory,94,OZONE
2019-05-19,Sonipat,1.0,Poor,243,OZONE
2019-05-20,Sonipat,1.0,Moderate,176,PM2.5
2019-05-21,Sonipat,1.0,Moderate,151,OZONE
2019-05-22,Sonipat,1.0,Moderate,173,PM10
2019-05-23,Sonipat,1.0,Poor,280,OZONE
2019-05-24,Sonipat,1.0,Moderate,151,PM10
2019-05-25,Sonipat,1.0,Satisfactory,99,OZONE
2019-05-26,Sonipat,1.0,Moderate,172,OZONE
2019-05-27,Sonipat,1.0,Moderate,109,OZONE
2019-05-28,Sonipat,1.0,Moderate,169,OZONE
2019-05-29,Sonipat,1.0,Moderate,180,OZONE
2019-05-30,Sonipat,1.0,Moderate,164,OZONE
2019-05-31,Sonipat,1.0,Poor,260,PM10
2019-06-01,Sonipat,1.0,Poor,206,PM2.5
2019-06-02,Sonipat,1.0,Moderate,196,OZONE
2019-06-03,Sonipat,1.0,Poor,232,PM10
2019-06-04,Sonipat,1.0,Moderate,184,OZONE
2019-06-05,Sonipat,1.0,Moderate,165,PM2.5
2019-06-06,Sonipat,1.0,Moderate,180,OZONE
2019-06-07,Sonipat,1.0,Moderate,198,OZONE
2019-06-08,Sonipat,1.0,Moderate,195,OZONE
2019-06-09,Sonipat,1.0,Poor,213,OZONE
2019-06-10,Sonipat,1.0,Poor,234,PM2.5
2019-06-15,Sonipat,1.0,Very Poor,349,PM2.5
2019-06-16,Sonipat,1.0,Poor,250,PM2.5
2019-06-17,Sonipat,1.0,Moderate,117,PM10
2019-06-18,Sonipat,1.0,Satisfactory,76,PM10
2019-06-19,Sonipat,1.0,Moderate,157,OZONE
2019-06-20,Sonipat,1.0,Moderate,192,OZONE
2019-06-21,Sonipat,1.0,Moderate,158,PM10
2019-06-22,Sonipat,1.0,Poor,247,OZONE
2019-06-25,Sonipat,1.0,Moderate,125,PM10
2019-06-26,Sonipat,1.0,Poor,210,PM2.5
2019-06-27,Sonipat,1.0,Poor,215,PM10
2019-06-29,Sonipat,1.0,Poor,272,PM10
2019-06-30,Sonipat,1.0,Poor,230,PM10
2019-07-01,Sonipat,1.0,Poor,213,PM10
2019-07-02,Sonipat,1.0,Poor,224,PM10
2019-07-03,Sonipat,1.0,Moderate,155,PM2.5
2019-07-04,Sonipat,1.0,Satisfactory,60,PM2.5
2019-07-05,Sonipat,1.0,Poor,265,PM10
2019-07-06,Sonipat,1.0,Moderate,149,PM10
2019-07-07,Sonipat,1.0,Moderate,103,PM10
2019-07-08,Sonipat,1.0,Moderate,166,OZONE
2019-07-09,Sonipat,1.0,Moderate,174,OZONE
2019-07-10,Sonipat,1.0,Moderate,109,PM10
2019-07-11,Sonipat,1.0,Very Poor,333,PM10
2019-07-12,Sonipat,1.0,Moderate,166,PM10
2019-07-13,Sonipat,1.0,Very Poor,308,PM10
2019-07-14,Sonipat,1.0,Poor,228,PM10
2019-07-15,Sonipat,1.0,Satisfactory,85,PM10
2019-07-17,Sonipat,1.0,Satisfactory,93,OZONE
2019-07-18,Sonipat,1.0,Satisfactory,83,OZONE
2019-07-19,Sonipat,1.0,Moderate,104,PM10
2019-07-20,Sonipat,1.0,Moderate,109,PM10
2019-07-21,Sonipat,1.0,Moderate,107,PM10
2019-07-22,Sonipat,1.0,Satisfactory,96,PM10
2019-07-23,Sonipat,1.0,Satisfactory,93,PM2.5
2019-07-24,Sonipat,1.0,Moderate,143,PM2.5
2019-07-26,Sonipat,1.0,Good,48,PM10
2019-07-27,Sonipat,1.0,Good,33,PM10
2019-07-28,Sonipat,1.0,Good,39,PM10
2019-07-29,Sonipat,1.0,Good,47,PM10
2019-07-30,Sonipat,1.0,Satisfactory,59,PM2.5
2019-07-31,Sonipat,1.0,Satisfactory,66,PM2.5
2019-08-01,Sonipat,1.0,Satisfactory,78,PM2.5
2019-08-02,Sonipat,1.0,Satisfactory,83,PM2.5
2019-08-03,Sonipat,1.0,Satisfactory,63,PM2.5
2019-08-04,Sonipat,1.0,Satisfactory,74,PM2.5
2019-08-05,Sonipat,1.0,Moderate,101,PM2.5
2019-08-06,Sonipat,1.0,Moderate,131,PM2.5
2019-08-07,Sonipat,1.0,Satisfactory,66,PM2.5
2019-08-08,Sonipat,1.0,Satisfactory,75,PM10
2019-08-10,Sonipat,1.0,Satisfactory,85,OZONE
2019-08-11,Sonipat,1.0,Satisfactory,89,OZONE
2019-08-12,Sonipat,1.0,Satisfactory,83,OZONE
2019-08-13,Sonipat,1.0,Satisfactory,87,OZONE
2019-08-14,Sonipat,1.0,Satisfactory,77,PM10
2019-08-15,Sonipat,1.0,Satisfactory,76,PM10
2019-08-16,Sonipat,1.0,Satisfactory,86,OZONE
2019-08-17,Sonipat,1.0,Satisfactory,54,PM10
2019-08-20,Sonipat,1.0,Satisfactory,77,PM10
2019-08-21,Sonipat,1.0,Moderate,101,PM10
2019-08-22,Sonipat,1.0,Moderate,119,PM10
2019-08-23,Sonipat,1.0,Moderate,172,PM2.5
2019-08-27,Sonipat,1.0,Moderate,125,PM10
2019-08-28,Sonipat,1.0,Moderate,106,OZONE
2019-08-29,Sonipat,1.0,Moderate,195,OZONE
2019-08-30,Sonipat,1.0,Moderate,103,OZONE
2019-08-31,Sonipat,1.0,Moderate,110,PM2.5
2019-09-01,Sonipat,1.0,Moderate,160,PM2.5
2019-09-03,Sonipat,1.0,Moderate,111,PM10
2019-09-04,Sonipat,1.0,Moderate,146,PM2.5
2019-09-05,Sonipat,1.0,Moderate,101,PM10
2019-09-06,Sonipat,1.0,Satisfactory,96,PM10
2019-09-07,Sonipat,1.0,Moderate,121,PM10
2019-09-08,Sonipat,1.0,Satisfactory,89,PM10
2019-09-09,Sonipat,1.0,Moderate,186,PM10
2019-09-10,Sonipat,1.0,Moderate,136,PM2.5
2019-09-11,Sonipat,1.0,Moderate,169,PM2.5
2019-09-12,Sonipat,1.0,Moderate,164,OZONE
2019-09-13,Sonipat,1.0,Satisfactory,71,PM10
2019-09-14,Sonipat,1.0,Satisfactory,68,PM10
2019-09-16,Sonipat,1.0,Satisfactory,85,PM10
2019-09-17,Sonipat,1.0,Moderate,125,PM2.5
2019-09-18,Sonipat,1.0,Satisfactory,97,PM10
2019-09-19,Sonipat,1.0,Good,48,PM10
2019-09-20,Sonipat,1.0,Satisfactory,65,PM10
2019-09-21,Sonipat,1.0,Satisfactory,96,PM10
2019-09-22,Sonipat,1.0,Satisfactory,79,PM10
2019-09-23,Sonipat,1.0,Good,38,PM10
2019-09-25,Sonipat,1.0,Satisfactory,99,PM10
2019-09-26,Sonipat,1.0,Moderate,103,PM10
2019-09-27,Sonipat,1.0,Satisfactory,63,PM10
2019-09-28,Sonipat,1.0,Satisfactory,87,PM10
2019-09-29,Sonipat,1.0,Good,37,PM10
2019-09-30,Sonipat,1.0,Satisfactory,53,PM10
2019-10-01,Sonipat,1.0,Moderate,114,PM10
2019-10-02,Sonipat,1.0,Moderate,132,PM10
2019-10-03,Sonipat,1.0,Moderate,118,PM10
2019-10-04,Sonipat,1.0,Satisfactory,89,PM10
2019-10-05,Sonipat,1.0,Satisfactory,82,PM10
2019-10-06,Sonipat,1.0,Satisfactory,82,PM10
2019-10-07,Sonipat,1.0,Satisfactory,93,PM10
2019-10-08,Sonipat,1.0,Satisfactory,89,PM10
2019-10-10,Sonipat,1.0,Moderate,174,PM10
2019-10-12,Sonipat,1.0,Moderate,198,PM2.5
2019-10-13,Sonipat,1.0,Poor,239,PM10
2019-10-14,Sonipat,1.0,Moderate,165,PM10
2019-10-15,Sonipat,1.0,Poor,230,PM10
2019-10-17,Sonipat,1.0,Poor,217,PM2.5
2019-10-18,Sonipat,1.0,Moderate,176,PM2.5
2019-10-20,Sonipat,1.0,Satisfactory,53,PM10
2019-10-21,Sonipat,1.0,Poor,228,PM2.5
2019-10-23,Sonipat,1.0,Moderate,122,PM2.5
2019-10-26,Sonipat,1.0,Poor,260,PM10
2019-10-27,Sonipat,1.0,Poor,215,PM10
2019-10-28,Sonipat,1.0,Moderate,140,PM10
2019-10-29,Sonipat,1.0,Poor,234,PM10
2019-10-30,Sonipat,1.0,Poor,216,PM10
2019-10-31,Sonipat,1.0,Moderate,195,PM10
2019-11-01,Sonipat,1.0,Moderate,196,PM10
2019-11-02,Sonipat,1.0,Poor,216,PM10
2019-11-03,Sonipat,1.0,Poor,206,PM10
2019-11-04,Sonipat,1.0,Very Poor,308,PM2.5
2019-11-05,Sonipat,1.0,Moderate,151,PM2.5
2019-11-06,Sonipat,1.0,Poor,280,PM2.5
2019-11-07,Sonipat,1.0,Very Poor,301,PM2.5
2019-11-09,Sonipat,1.0,Poor,211,PM2.5
2019-11-10,Sonipat,1.0,Poor,252,PM2.5
2019-11-11,Sonipat,1.0,Poor,251,PM2.5
2019-11-12,Sonipat,1.0,Very Poor,309,PM2.5
2019-11-13,Sonipat,1.0,Poor,247,PM2.5
2019-11-14,Sonipat,1.0,Moderate,163,PM2.5
2019-11-15,Sonipat,1.0,Poor,263,PM2.5
2019-11-16,Sonipat,1.0,Poor,212,PM10
2019-11-19,Sonipat,1.0,Poor,209,PM2.5
2019-11-20,Sonipat,1.0,Moderate,157,PM2.5
2019-11-21,Sonipat,1.0,Moderate,136,PM2.5
2019-11-22,Sonipat,1.0,Moderate,137,PM10
2019-11-23,Sonipat,1.0,Moderate,143,PM10
2019-11-24,Sonipat,1.0,Satisfactory,86,PM10
2019-11-26,Sonipat,1.0,Moderate,143,PM10
2019-11-27,Sonipat,1.0,Satisfactory,59,PM10
2019-11-28,Sonipat,1.0,Good,50,CO
2019-11-30,Sonipat,1.0,Satisfactory,88,PM10
2019-12-01,Sonipat,1.0,Satisfactory,88,PM2.5
2019-12-02,Sonipat,1.0,Moderate,108,PM2.5
2019-12-03,Sonipat,1.0,Satisfactory,77,PM2.5
2019-12-04,Sonipat,1.0,Satisfactory,79,PM10
2019-12-05,Sonipat,1.0,Satisfactory,94,CO
2019-12-06,Sonipat,1.0,Satisfactory,91,PM10
2019-12-07,Sonipat,1.0,Satisfactory,95,CO
2019-12-08,Sonipat,1.0,Satisfactory,100,CO
2019-12-09,Sonipat,1.0,Moderate,107,CO
2019-12-10,Sonipat,1.0,Moderate,111,CO
2019-12-11,Sonipat,1.0,Moderate,115,CO
2019-12-12,Sonipat,1.0,Moderate,116,CO
2019-12-13,Sonipat,1.0,Moderate,103,PM10
2019-12-15,Sonipat,1.0,Satisfactory,55,PM10
2019-12-16,Sonipat,1.0,Moderate,107,PM10
2019-12-18,Sonipat,1.0,Satisfactory,66,PM10
2019-12-19,Sonipat,1.0,Satisfactory,78,PM10
2019-12-21,Sonipat,1.0,Very Poor,347,PM10
2019-12-23,Sonipat,1.0,Very Poor,345,PM10
2019-12-24,Sonipat,1.0,Poor,277,PM10
2019-12-25,Sonipat,1.0,Very Poor,317,PM10
2019-12-26,Sonipat,1.0,Poor,224,PM10
2019-12-27,Sonipat,1.0,Poor,295,PM10
2019-12-28,Sonipat,1.0,Moderate,149,PM10
2019-12-29,Sonipat,1.0,Moderate,143,PM10
2019-12-30,Sonipat,1.0,Moderate,139,CO
2019-12-31,Sonipat,1.0,Moderate,153,PM10
2020-01-01,Sonipat,1.0,Very Poor,335,PM10
2020-01-02,Sonipat,1.0,Poor,268,PM10
2020-01-03,Sonipat,1.0,Poor,226,PM10
2020-01-04,Sonipat,1.0,Poor,219,PM10
2020-01-05,Sonipat,1.0,Poor,228,PM10
2020-01-06,Sonipat,1.0,Poor,221,PM10
2020-01-07,Sonipat,1.0,Moderate,169,PM10
2020-01-08,Sonipat,1.0,Moderate,181,PM10
2020-01-10,Sonipat,1.0,Moderate,138,PM10
2020-01-11,Sonipat,1.0,Moderate,126,PM10
2020-01-12,Sonipat,1.0,Moderate,150,PM10
2020-01-13,Sonipat,1.0,Poor,253,PM10
2020-01-14,Sonipat,1.0,Moderate,175,PM10
2020-01-15,Sonipat,1.0,Moderate,124,PM10
2020-01-16,Sonipat,1.0,Moderate,168,PM10
2020-01-17,Sonipat,1.0,Moderate,128,CO
2020-01-18,Sonipat,1.0,Moderate,129,CO
2020-01-19,Sonipat,1.0,Moderate,125,CO
2020-01-20,Sonipat,1.0,Moderate,119,CO
2020-01-21,Sonipat,1.0,Moderate,156,PM10
2020-01-22,Sonipat,1.0,Moderate,170,PM10
2020-01-23,Sonipat,1.0,Moderate,110,CO
2020-01-24,Sonipat,1.0,Satisfactory,88,PM10
2020-01-25,Sonipat,1.0,Moderate,153,PM10
2020-01-26,Sonipat,1.0,Moderate,199,PM10
2020-01-27,Sonipat,1.0,Moderate,165,PM10
2020-01-28,Sonipat,1.0,Moderate,133,PM10
2020-01-29,Sonipat,1.0,Moderate,111,CO
2020-01-30,Sonipat,1.0,Satisfactory,95,CO
2020-01-31,Sonipat,1.0,Satisfactory,81,PM10
2020-02-01,Sonipat,1.0,Moderate,151,PM10
2020-02-02,Sonipat,1.0,Moderate,109,PM10
2020-02-03,Sonipat,1.0,Moderate,126,PM10
2020-02-04,Sonipat,1.0,Moderate,145,PM10
2020-02-05,Sonipat,1.0,Moderate,154,PM10
2020-02-06,Sonipat,1.0,Moderate,111,PM10
2020-02-07,Sonipat,1.0,Moderate,143,PM10
2020-02-08,Sonipat,1.0,Moderate,123,PM10
2020-02-09,Sonipat,1.0,Moderate,164,PM10
2020-02-10,Sonipat,1.0,Moderate,148,PM10
2020-02-11,Sonipat,1.0,Moderate,150,PM10
2020-02-12,Sonipat,1.0,Moderate,153,PM10
2020-02-13,Sonipat,1.0,Moderate,119,PM10
2020-02-14,Sonipat,1.0,Moderate,111,PM10
2020-02-17,Sonipat,1.0,Moderate,152,PM10
2020-02-18,Sonipat,1.0,Moderate,160,PM10
2020-02-19,Sonipat,1.0,Poor,246,PM10
2020-02-20,Sonipat,1.0,Poor,253,PM10
2020-02-23,Sonipat,1.0,Moderate,137,PM10
2020-02-24,Sonipat,1.0,Moderate,108,PM10
2020-02-25,Sonipat,1.0,Moderate,143,PM10
2020-02-26,Sonipat,1.0,Moderate,156,PM10
2020-02-27,Sonipat,1.0,Moderate,175,PM10
2020-02-28,Sonipat,1.0,Moderate,190,PM10
2020-02-29,Sonipat,1.0,Moderate,136,PM10
2020-03-01,Sonipat,1.0,Satisfactory,71,PM10
2020-03-02,Sonipat,1.0,Moderate,121,PM10
2020-03-03,Sonipat,1.0,Moderate,116,PM10
2020-03-04,Sonipat,1.0,Moderate,164,PM10
2020-03-08,Sonipat,1.0,Moderate,121,PM10
2020-03-09,Sonipat,1.0,Satisfactory,75,PM10
2020-03-10,Sonipat,1.0,Moderate,107,PM10
2020-03-11,Sonipat,1.0,Moderate,108,PM10
2020-03-13,Sonipat,1.0,Moderate,160,PM10
2020-03-14,Sonipat,1.0,Moderate,110,PM10
2020-03-15,Sonipat,1.0,Moderate,110,PM10
2020-03-16,Sonipat,1.0,Moderate,109,PM10
2020-03-17,Sonipat,1.0,Satisfactory,100,PM10
2020-03-18,Sonipat,1.0,Satisfactory,99,PM10
2020-03-19,Sonipat,1.0,Moderate,118,PM10
2020-03-20,Sonipat,1.0,Moderate,140,PM10
2020-03-21,Sonipat,1.0,Moderate,180,PM10
2020-03-22,Sonipat,1.0,Moderate,160,PM10
2020-03-23,Sonipat,1.0,Satisfactory,88,PM10
2020-03-24,Sonipat,1.0,Moderate,117,CO
2020-03-25,Sonipat,1.0,Moderate,136,PM10
2020-03-26,Sonipat,1.0,Moderate,105,CO
2020-03-27,Sonipat,1.0,Satisfactory,97,CO
2020-03-28,Sonipat,1.0,Satisfactory,62,NO2
2020-03-29,Sonipat,1.0,Satisfactory,51,PM10
2020-03-30,Sonipat,1.0,Satisfactory,81,PM10
2020-03-31,Sonipat,1.0,Moderate,114,CO
2020-04-01,Sonipat,1.0,Satisfactory,78,PM10
2020-04-02,Sonipat,1.0,Satisfactory,72,NO2
2020-04-03,Sonipat,1.0,Satisfactory,79,NO2
2020-04-04,Sonipat,1.0,Satisfactory,85,NO2
2020-04-05,Sonipat,1.0,Satisfactory,80,PM10
2020-04-06,Sonipat,1.0,Moderate,102,PM10
2020-04-07,Sonipat,1.0,Moderate,110,PM10
2020-04-08,Sonipat,1.0,Satisfactory,73,NO2
2020-04-09,Sonipat,1.0,Satisfactory,80,NO2
2020-04-10,Sonipat,1.0,Satisfactory,85,PM10
2020-04-11,Sonipat,1.0,Satisfactory,100,PM10
2020-04-12,Sonipat,1.0,Satisfactory,89,PM10
2020-04-16,Sonipat,1.0,Poor,210,PM10
2020-04-17,Sonipat,1.0,Moderate,123,PM10
2020-04-18,Sonipat,1.0,Moderate,106,PM10
2020-04-19,Sonipat,1.0,Satisfactory,67,PM10
2020-04-20,Sonipat,1.0,Moderate,113,PM10
2020-04-21,Sonipat,1.0,Satisfactory,83,PM10
2020-04-22,Sonipat,1.0,Moderate,120,PM10
2020-04-23,Sonipat,1.0,Moderate,141,PM10
2020-04-24,Sonipat,1.0,Moderate,139,PM10
2020-04-25,Sonipat,1.0,Moderate,138,PM10
2020-04-26,Sonipat,1.0,Moderate,180,PM10
2020-04-27,Sonipat,1.0,Satisfactory,72,NO2
2020-04-28,Sonipat,1.0,Satisfactory,95,PM10
2020-04-29,Sonipat,1.0,Moderate,172,PM10
2020-04-30,Sonipat,1.0,Moderate,170,PM10
2020-05-01,Sonipat,1.0,Moderate,150,PM10
2020-05-02,Sonipat,1.0,Moderate,125,PM10
2020-05-03,Sonipat,1.0,Moderate,128,PM10
2020-05-05,Sonipat,1.0,Satisfactory,96,PM10
2020-05-06,Sonipat,1.0,Moderate,142,PM10
2020-05-07,Sonipat,1.0,Satisfactory,100,PM10
2020-05-09,Sonipat,1.0,Moderate,172,PM10
2020-05-10,Sonipat,1.0,Moderate,160,PM10
2020-05-11,Sonipat,1.0,Satisfactory,69,NO2
2020-05-12,Sonipat,1.0,Moderate,181,PM10
2020-05-14,Sonipat,1.0,Poor,249,PM10
2020-05-15,Sonipat,1.0,Moderate,127,PM10
2020-05-16,Sonipat,1.0,Moderate,162,PM10
2020-05-18,Sonipat,1.0,Moderate,144,PM10
2020-05-19,Sonipat,1.0,Moderate,113,PM2.5
2020-05-20,Sonipat,1.0,Moderate,171,PM10
2020-05-21,Sonipat,1.0,Moderate,133,PM10
2020-05-22,Sonipat,1.0,Moderate,170,PM10
2020-05-23,Sonipat,1.0,Moderate,181,PM10
2020-05-24,Sonipat,1.0,Poor,232,PM10
2020-05-25,Sonipat,1.0,Moderate,165,PM10
2020-05-26,Sonipat,1.0,Moderate,173,PM10
2020-05-27,Sonipat,1.0,Moderate,155,PM10
2020-05-28,Sonipat,1.0,Moderate,183,PM10
2020-05-29,Sonipat,1.0,Satisfactory,97,PM10
2020-05-30,Sonipat,1.0,Satisfactory,73,PM10
2020-05-31,Sonipat,1.0,Satisfactory,71,PM10
2020-06-01,Sonipat,1.0,Moderate,108,PM10
2020-06-02,Sonipat,1.0,Moderate,136,PM10
2020-06-04,Sonipat,1.0,Moderate,172,PM10
2020-06-05,Sonipat,1.0,Moderate,119,PM10
2020-06-06,Sonipat,1.0,Moderate,117,PM10
2020-06-07,Sonipat,1.0,Moderate,118,PM10
2020-06-08,Sonipat,1.0,Moderate,102,PM10
2020-06-09,Sonipat,1.0,Moderate,128,PM10
2020-06-10,Sonipat,1.0,Moderate,166,PM10
2020-06-11,Sonipat,1.0,Moderate,133,PM10
2020-06-12,Sonipat,1.0,Moderate,183,PM10
2020-06-13,Sonipat,1.0,Moderate,192,PM10
2020-06-14,Sonipat,1.0,Moderate,131,PM10
2020-06-15,Sonipat,1.0,Moderate,144,PM10
2020-06-16,Sonipat,1.0,Moderate,186,PM10
2020-06-17,Sonipat,1.0,Moderate,157,PM10
2020-06-18,Sonipat,1.0,Moderate,161,PM10
2020-06-19,Sonipat,1.0,Moderate,159,PM10
2020-06-20,Sonipat,1.0,Moderate,151,PM10
2020-06-21,Sonipat,1.0,Moderate,114,PM10
2020-06-22,Sonipat,1.0,Moderate,105,PM10
2020-06-23,Sonipat,1.0,Satisfactory,91,PM10
2020-06-24,Sonipat,1.0,Satisfactory,77,PM10
2020-06-25,Sonipat,1.0,Satisfactory,94,NO2
2020-06-26,Sonipat,1.0,Moderate,101,PM10
2020-06-27,Sonipat,1.0,Moderate,125,PM10
2020-06-28,Sonipat,1.0,Very Poor,308,PM10
2020-06-29,Sonipat,1.0,Very Poor,324,PM10
2020-06-30,Sonipat,1.0,Moderate,145,PM10
2020-07-01,Sonipat,1.0,Moderate,136,PM10
2020-07-02,Sonipat,1.0,Moderate,147,PM10
2020-07-03,Sonipat,1.0,Moderate,179,PM10
2020-07-04,Sonipat,1.0,Moderate,126,PM10
2020-07-05,Sonipat,1.0,Good,37,NO2
2020-07-06,Sonipat,1.0,Satisfactory,72,NO2
2020-07-07,Sonipat,1.0,Satisfactory,74,NO2
2020-07-08,Sonipat,1.0,Moderate,103,NO2
2020-07-09,Sonipat,1.0,Satisfactory,68,NO2
2020-07-10,Sonipat,1.0,Satisfactory,70,PM10
2020-07-11,Sonipat,1.0,Satisfactory,55,PM2.5
2020-07-12,Sonipat,1.0,Satisfactory,71,PM10
2020-07-13,Sonipat,1.0,Satisfactory,62,SO2
2020-07-23,Sonipat,1.0,Satisfactory,60,PM10
2020-07-24,Sonipat,1.0,Satisfactory,89,PM10
2020-07-25,Sonipat,1.0,Satisfactory,71,PM10
2020-07-26,Sonipat,1.0,Satisfactory,78,PM10
2020-07-27,Sonipat,1.0,Moderate,104,PM10
2020-07-28,Sonipat,1.0,Satisfactory,86,PM10
2020-07-29,Sonipat,1.0,Moderate,116,PM10
2020-07-30,Sonipat,1.0,Satisfactory,88,PM10
2020-07-31,Sonipat,1.0,Satisfactory,67,PM10
2020-08-01,Sonipat,1.0,Satisfactory,77,PM10
2020-08-02,Sonipat,1.0,Satisfactory,66,PM10
2020-08-03,Sonipat,1.0,Satisfactory,87,PM10
2020-08-04,Sonipat,1.0,Satisfactory,83,SO2
2020-08-05,Sonipat,1.0,Moderate,110,PM10
2020-08-06,Sonipat,1.0,Satisfactory,68,PM10
2020-08-07,Sonipat,1.0,Good,46,PM10
2020-08-08,Sonipat,1.0,Satisfactory,89,PM10
2020-08-09,Sonipat,1.0,Satisfactory,81,PM10
2020-08-10,Sonipat,1.0,Satisfactory,74,PM10
2020-08-11,Sonipat,1.0,Moderate,107,PM10
2020-08-12,Sonipat,1.0,Satisfactory,89,PM10
2020-08-15,Sonipat,1.0,Satisfactory,90,PM10
2020-08-17,Sonipat,1.0,Moderate,155,PM10
2020-08-20,Sonipat,1.0,Good,41,PM10
2020-08-21,Sonipat,1.0,Good,34,O3
2020-08-22,Sonipat,1.0,Good,50,PM10
2020-08-23,Sonipat,1.0,Good,44,PM10
2020-08-24,Sonipat,1.0,Satisfactory,66,PM10
2020-08-25,Sonipat,1.0,Moderate,117,PM10
2020-08-26,Sonipat,1.0,Satisfactory,78,PM10
2020-08-27,Sonipat,1.0,Satisfactory,62,PM10
2020-08-28,Sonipat,1.0,Satisfactory,78,PM10
2020-08-29,Sonipat,1.0,Satisfactory,79,PM10
2020-08-30,Sonipat,1.0,Satisfactory,90,PM10
2020-08-31,Sonipat,1.0,Good,48,PM10
2020-09-01,Sonipat,1.0,Satisfactory,84,PM10
2020-09-02,Sonipat,1.0,Satisfactory,66,PM10
2020-09-03,Sonipat,1.0,Satisfactory,86,PM10
2020-09-04,Sonipat,1.0,Satisfactory,81,PM10
2020-09-05,Sonipat,1.0,Satisfactory,66,PM2.5
2020-09-06,Sonipat,1.0,Satisfactory,59,PM10
2020-09-07,Sonipat,1.0,Satisfactory,64,PM10
2020-09-08,Sonipat,1.0,Satisfactory,67,PM10
2020-09-09,Sonipat,1.0,Moderate,101,PM10
2020-09-10,Sonipat,1.0,Satisfactory,93,PM10
2020-09-11,Sonipat,1.0,Moderate,160,PM10
2020-09-12,Sonipat,1.0,Moderate,162,PM10
2020-09-13,Sonipat,1.0,Moderate,136,PM10
2020-09-14,Sonipat,1.0,Moderate,158,PM10
2020-09-15,Sonipat,1.0,Satisfactory,63,SO2
2020-09-16,Sonipat,1.0,Moderate,167,PM10
2020-09-17,Sonipat,1.0,Moderate,129,PM10
2020-09-18,Sonipat,1.0,Moderate,116,PM10
2020-09-19,Sonipat,1.0,Moderate,135,PM10
2020-09-20,Sonipat,1.0,Moderate,150,PM10
2020-09-21,Sonipat,1.0,Moderate,134,PM10
2020-09-22,Sonipat,1.0,Moderate,123,PM10
2020-09-24,Sonipat,1.0,Satisfactory,86,PM10
2020-09-25,Sonipat,1.0,Moderate,126,PM10
2020-09-26,Sonipat,1.0,Moderate,127,PM10
2020-09-27,Sonipat,1.0,Satisfactory,77,PM10
2020-09-28,Sonipat,1.0,Moderate,127,PM10
2020-09-29,Sonipat,1.0,Moderate,157,PM10
2020-09-30,Sonipat,1.0,Moderate,132,PM10
2020-10-01,Sonipat,1.0,Moderate,176,PM10
2020-10-02,Sonipat,1.0,Moderate,181,PM10
2020-10-03,Sonipat,1.0,Moderate,173,PM10
2020-10-04,Sonipat,1.0,Poor,237,PM10
2020-10-05,Sonipat,1.0,Moderate,184,PM10
2020-10-06,Sonipat,1.0,Moderate,161,PM10
2020-10-07,Sonipat,1.0,Moderate,177,PM10
2020-10-08,Sonipat,1.0,Moderate,181,PM10
2020-10-09,Sonipat,1.0,Moderate,172,PM10
2020-10-10,Sonipat,1.0,Moderate,166,PM10
2020-10-11,Sonipat,1.0,Moderate,178,PM10
2020-10-12,Sonipat,1.0,Poor,207,PM10
2020-10-13,Sonipat,1.0,Poor,219,PM10
2020-10-15,Sonipat,1.0,Poor,268,PM10
2020-10-16,Sonipat,1.0,Moderate,144,PM10
2020-10-17,Sonipat,1.0,Moderate,158,PM10
2020-10-18,Sonipat,1.0,Moderate,170,PM10
2020-10-19,Sonipat,1.0,Moderate,178,PM10
2020-10-20,Sonipat,1.0,Moderate,146,PM10
2020-10-21,Sonipat,1.0,Poor,216,PM10
2020-10-22,Sonipat,1.0,Moderate,189,PM10